GW0891 Weather Reports


time (UTC)temp
F
wind
direction
speed
knots
gust
knots
rain 1hr
in
rain 24hr
in
rain mn
in
humidity
%
barometer
mb
20260505184910 71 19 0.9 4.3 0.00 0.00 0.00 35 1011.6
20260505184407 71 20 0.9 4.3 0.00 0.00 0.00 38 1011.7
20260505183904 71 307 1.7 2.6 0.00 0.00 0.00 37 1011.7
20260505183401 71 19 2.6 5.2 0.00 0.00 0.00 40 1011.8
20260505182858 71 347 2.6 7.8 0.00 0.00 0.00 34 1011.9
20260505182355 71 42 0.0 2.6 0.00 0.00 0.00 42 1011.8
20260505181851 70 72 0.0 0.9 0.00 0.00 0.00 36 1011.9
20260505181348 69 338 1.7 5.2 0.00 0.00 0.00 35 1011.9
20260505180845 70 285 2.6 4.3 0.00 0.00 0.00 36 1011.9
20260505180341 69 292 3.5 4.3 0.00 0.00 0.00 36 1011.9
20260505175838 68 295 1.7 4.3 0.00 0.00 0.00 38 1012.2
20260505175334 68 279 1.7 4.3 0.00 0.00 0.00 36 1012.2
20260505174831 68 288 0.0 1.7 0.00 0.00 0.00 38 1011.8
20260505174329 69 51 0.0 4.3 0.00 0.00 0.00 37 1012.1
20260505173824 68 76 0.0 1.7 0.00 0.00 0.00 37 1012.2
20260505173321 67 267 0.0 1.7 0.00 0.00 0.00 37 1012.3
20260505172818 66 256 0.0 1.7 0.00 0.00 0.00 37 1012.3
20260505172315 67 314 2.6 5.2 0.00 0.00 0.00 37 1012.1
20260505171810 67 294 3.5 7.0 0.00 0.00 0.00 37 1012.1
20260505171307 67 168 0.9 4.3 0.00 0.00 0.00 38 1011.9
20260505170803 67 101 0.0 0.0 0.00 0.00 0.00 37 1012.1
20260505170300 66 76 0.0 1.7 0.00 0.00 0.00 37 1011.7
20260505165755 66 273 0.0 1.7 0.00 0.00 0.00 38 1011.8
20260505165252 65 356 1.7 2.6 0.00 0.00 0.00 42 1012.3
20260505164748 65 236 2.6 5.2 0.00 0.00 0.00 39 1011.9
20260505164245 65 236 1.7 4.3 0.00 0.00 0.00 38 1012.1
20260505163743 64 271 2.6 7.0 0.00 0.00 0.00 39 1011.9
20260505163241 65 246 1.7 1.7 0.00 0.00 0.00 39 1012.2
20260505162739 64 198 4.3 7.8 0.00 0.00 0.00 40 1012.1
20260505162235 64 155 2.6 5.2 0.00 0.00 0.00 39 1011.7
20260505161732 64 206 2.6 5.2 0.00 0.00 0.00 40 1011.9
20260505161230 64 225 3.5 6.1 0.00 0.00 0.00 39 1011.7
20260505160727 63 111 2.6 7.0 0.00 0.00 0.00 41 1011.9
20260505160225 64 209 3.5 6.1 0.00 0.00 0.00 40 1011.6
20260505153204 64 97 0.0 0.9 0.00 0.00 0.00 45 1011.4
20260505152700 64 186 0.9 4.3 0.00 0.00 0.00 43 1011.4
20260505152156 64 185 2.6 2.6 0.00 0.00 0.00 45 1011.5
20260505151652 62 220 2.6 2.6 0.00 0.00 0.00 46 1011.4
20260505151149 62 19 0.0 1.7 0.00 0.00 0.00 47 1011.4
20260505150645 62 96 0.9 1.7 0.00 0.00 0.00 51 1011.5
20260505150143 62 96 0.0 0.0 0.00 0.00 0.00 54 1011.7
20260505140611 51 58 0.0 0.0 0.00 0.00 0.00 72 1011.0
20260505140108 51 58 0.0 0.0 0.00 0.00 0.00 73 1011.0
20260505125024 49 77 0.0 0.0 0.00 0.00 0.00 73 1009.8
20260505124521 49 55 0.0 0.0 0.00 0.00 0.00 73 1009.7
20260505124017 49 58 0.0 0.0 0.00 0.00 0.00 72 1009.6
20260505123514 50 58 0.0 0.0 0.00 0.00 0.00 71 1009.7
20260505123010 50 60 0.0 0.0 0.00 0.00 0.00 71 1009.3
20260505122507 50 65 0.0 0.9 0.00 0.00 0.00 71 1009.3
20260505122004 50 59 0.0 0.0 0.00 0.00 0.00 71 1009.3
20260505121501 50 62 0.0 0.0 0.00 0.00 0.00 70 1009.0
20260505120957 51 57 0.0 0.0 0.00 0.00 0.00 69 1009.0
20260505120453 50 55 0.0 0.9 0.00 0.00 0.00 69 1008.9
20260505115952 50 61 0.0 0.0 0.00 0.00 0.00 69 1009.0
20260505115449 50 159 0.0 0.9 0.00 0.00 0.00 70 1008.7
20260505114947 50 86 0.0 0.0 0.00 0.00 0.00 70 1008.7
20260505114443 50 60 0.0 0.0 0.00 0.00 0.00 69 1008.6
20260505113940 50 59 0.0 0.0 0.00 0.00 0.00 69 1008.4
20260505113436 51 57 0.0 0.0 0.00 0.00 0.00 68 1008.6
20260505112932 51 61 0.0 0.0 0.00 0.00 0.00 67 1008.6
20260505112430 51 65 0.0 0.0 0.00 0.00 0.00 66 1008.3
20260505111926 51 66 0.0 0.0 0.00 0.00 0.00 66 1008.1
20260505111421 51 64 0.0 0.0 0.00 0.00 0.00 66 1008.0
20260505110917 51 61 0.0 0.0 0.00 0.00 0.00 66 1008.0
20260505110414 51 61 0.0 0.9 0.00 0.00 0.00 66 1007.9
20260505101845 53 55 0.0 0.0 0.00 0.00 0.00 64 1007.4
20260505101340 53 63 0.0 0.0 0.00 0.00 0.00 63 1007.5
20260505100836 53 59 0.0 0.0 0.00 0.00 0.00 64 1007.2
20260505100333 53 60 0.0 0.0 0.00 0.00 0.00 63 1007.1
20260505095828 54 61 0.0 0.0 0.00 0.00 0.00 62 1007.0
20260505095326 54 71 0.0 0.0 0.00 0.00 0.00 61 1007.1
20260505094822 54 71 0.0 0.0 0.00 0.00 0.00 61 1006.7
20260505094319 54 70 0.0 0.0 0.00 0.00 0.00 61 1006.8
20260505093814 54 70 0.0 0.0 0.00 0.00 0.00 60 1007.0
20260505093312 55 63 0.0 0.0 0.00 0.00 0.00 59 1006.6
20260505092808 56 61 0.0 0.0 0.00 0.00 0.00 58 1006.7
20260505092307 56 84 0.0 1.7 0.00 0.00 0.00 57 1006.5
20260505091804 57 173 1.7 2.6 0.00 0.00 0.00 56 1006.4
20260505091303 57 182 1.7 2.6 0.00 0.00 0.00 55 1006.6
20260505090800 58 60 0.0 0.0 0.00 0.00 0.00 54 1006.6
20260505090258 58 181 1.7 4.3 0.00 0.00 0.00 52 1006.5
20260505085755 59 168 1.7 2.6 0.00 0.00 0.00 51 1006.2
20260505085253 59 202 0.9 2.6 0.00 0.00 0.00 52 1006.3
20260505084750 59 182 0.9 2.6 0.00 0.00 0.00 51 1006.1
20260505084249 60 212 0.9 1.7 0.00 0.00 0.00 51 1006.0
20260505083746 60 178 1.7 2.6 0.00 0.00 0.00 49 1006.0
20260505083242 59 204 2.6 4.3 0.00 0.00 0.00 50 1006.0
20260505082739 59 125 0.9 0.9 0.00 0.00 0.00 53 1005.9
20260505082236 58 197 0.9 2.6 0.00 0.00 0.00 53 1005.7
20260505081732 57 169 0.9 2.6 0.00 0.00 0.00 55 1006.0
20260505081229 57 69 0.0 0.0 0.00 0.00 0.00 55 1005.9
20260505080726 58 168 0.9 1.7 0.00 0.00 0.00 54 1005.7
20260505080221 58 78 0.0 0.0 0.00 0.00 0.00 53 1005.9
20260505075717 59 86 0.0 0.0 0.00 0.00 0.00 53 1005.5
20260505075215 60 69 0.0 0.0 0.00 0.00 0.00 50 1005.7
20260505074712 61 64 0.0 0.0 0.00 0.00 0.00 48 1005.8
20260505074209 62 29 0.0 0.0 0.00 0.00 0.00 45 1005.8
20260505073707 62 44 0.0 0.9 0.00 0.00 0.00 44 1005.8
20260505073205 62 317 0.9 2.6 0.00 0.00 0.00 44 1005.4
20260505072700 62 65 0.0 0.0 0.00 0.00 0.00 46 1005.4
20260505072156 63 82 0.9 0.9 0.00 0.00 0.00 42 1005.5
20260505071652 64 313 0.9 1.7 0.00 0.00 0.00 41 1005.4
20260505071150 62 41 0.0 0.0 0.00 0.00 0.00 46 1005.5
20260505070647 62 78 0.0 0.0 0.00 0.00 0.00 45 1005.7
20260505070143 62 133 0.0 0.9 0.00 0.00 0.00 45 1005.3
20260505065639 63 52 0.9 2.6 0.00 0.00 0.00 43 1005.1
20260505065136 62 217 0.9 1.7 0.00 0.00 0.00 44 1005.2
20260505064633 65 115 1.7 2.6 0.00 0.00 0.00 41 1005.2
20260505064131 65 35 0.0 0.0 0.00 0.00 0.00 40 1005.1
20260505063628 65 69 0.0 0.9 0.00 0.00 0.00 40 1005.3
20260505063124 65 61 0.9 1.7 0.00 0.00 0.00 39 1005.2
20260505062621 66 43 0.0 0.9 0.00 0.00 0.00 38 1005.3
20260505062118 66 45 0.0 0.9 0.00 0.00 0.00 38 1005.3
20260505061615 67 47 0.0 0.0 0.00 0.00 0.00 37 1005.0
20260505061113 67 356 0.0 0.0 0.00 0.00 0.00 36 1005.2
20260505060611 68 48 0.0 0.0 0.00 0.00 0.00 36 1005.0
20260505060107 68 20 1.7 2.6 0.00 0.00 0.00 35 1005.0
20260505055603 68 287 4.3 6.1 0.00 0.00 0.00 34 1005.2
20260505055059 68 292 2.6 7.0 0.00 0.00 0.00 35 1004.9
20260505054557 68 294 1.7 5.2 0.00 0.00 0.00 34 1005.0
20260505054055 69 299 3.5 5.2 0.00 0.00 0.00 34 1005.1
20260505053551 69 318 2.6 6.1 0.00 0.00 0.00 34 1005.0
20260505053048 69 309 1.7 4.3 0.00 0.00 0.00 33 1005.1
20260505052545 69 296 1.7 6.1 0.00 0.00 0.00 34 1005.0
20260505052043 69 327 2.6 4.3 0.00 0.00 0.00 33 1005.2
20260505051539 69 280 3.5 5.2 0.00 0.00 0.00 33 1005.1
20260505051038 69 312 0.0 4.3 0.00 0.00 0.00 34 1005.0
20260505050535 69 339 2.6 2.6 0.00 0.00 0.00 34 1004.9
20260505041503 69 16 0.0 1.7 0.00 0.00 0.00 33 1004.9
20260505041001 69 13 0.0 0.0 0.00 0.00 0.00 33 1004.9
20260505040458 70 6 0.9 2.6 0.00 0.00 0.00 32 1005.0
20260505035954 70 286 1.7 2.6 0.00 0.00 0.00 32 1004.8
20260505035450 70 347 2.6 2.6 0.00 0.00 0.00 32 1004.7
20260505034948 70 30 1.7 2.6 0.00 0.00 0.00 32 1004.7
20260505034444 71 13 0.0 4.3 0.00 0.00 0.00 32 1004.8
20260505033941 71 322 1.7 1.7 0.00 0.00 0.00 32 1004.5
20260505033438 71 328 0.0 2.6 0.00 0.00 0.00 31 1004.7
20260505032936 71 305 3.5 4.3 0.00 0.00 0.00 31 1004.7
20260505032433 72 317 2.6 4.3 0.00 0.00 0.00 31 1004.6
20260505031929 72 14 2.6 4.3 0.00 0.00 0.00 31 1004.6
20260505031427 72 29 1.7 4.3 0.00 0.00 0.00 31 1004.6
20260505030923 72 348 2.6 4.3 0.00 0.00 0.00 31 1004.5
20260505030419 73 17 0.9 1.7 0.00 0.00 0.00 31 1004.5
20260505025915 73 31 0.0 0.9 0.00 0.00 0.00 30 1004.4
20260505025412 73 9 0.9 0.9 0.00 0.00 0.00 30 1004.7
20260505024911 74 29 0.0 2.6 0.00 0.00 0.00 30 1004.4
20260505024408 74 36 0.0 2.6 0.00 0.00 0.00 30 1004.5
20260505023905 75 327 0.0 2.6 0.00 0.00 0.00 30 1004.4
20260505023402 76 107 0.0 0.0 0.00 0.00 0.00 29 1004.2
20260505022859 76 25 0.9 2.6 0.00 0.00 0.00 29 1004.2
20260505022356 77 82 2.6 4.3 0.00 0.00 0.00 28 1004.2
20260505021854 77 4 0.0 0.9 0.00 0.00 0.00 30 1004.2
20260505021350 78 35 0.0 1.7 0.00 0.00 0.00 30 1004.2
20260505020846 77 306 1.7 5.2 0.00 0.00 0.00 29 1004.2
20260505020342 78 21 0.0 6.1 0.00 0.00 0.00 29 1004.4
20260505015839 78 7 2.6 7.0 0.00 0.00 0.00 29 1004.2
20260505015336 78 37 2.6 2.6 0.00 0.00 0.00 28 1004.4
20260505014833 79 287 2.6 5.2 0.00 0.00 0.00 27 1004.4
20260505014330 79 280 3.5 6.1 0.00 0.00 0.00 27 1004.4
20260505013826 79 329 3.5 7.0 0.00 0.00 0.00 27 1004.2
20260505013324 79 12 1.7 7.0 0.00 0.00 0.00 27 1004.4
20260505012822 80 281 4.3 7.8 0.00 0.00 0.00 27 1004.4
20260505012320 80 330 1.7 5.2 0.00 0.00 0.00 26 1004.5
20260505011815 80 240 8.7 11.3 0.00 0.00 0.00 24 1004.4
20260505011312 80 32 2.6 8.7 0.00 0.00 0.00 26 1004.7
20260505010808 80 286 5.2 11.3 0.00 0.00 0.00 25 1004.6
20260505010304 81 310 5.2 7.0 0.00 0.00 0.00 24 1004.5
20260505005801 81 24 4.3 7.0 0.00 0.00 0.00 23 1004.6
20260505005258 81 296 5.2 9.6 0.00 0.00 0.00 23 1004.7
20260505004755 81 323 2.6 7.8 0.00 0.00 0.00 23 1004.7
20260505004251 82 266 1.7 8.7 0.00 0.00 0.00 21 1004.5
20260505003749 82 6 0.9 5.2 0.00 0.00 0.00 21 1004.8
20260505003246 82 279 4.3 6.1 0.00 0.00 0.00 21 1004.9
20260505002742 82 351 0.9 6.1 0.00 0.00 0.00 22 1004.9
20260505002240 82 288 0.9 8.7 0.00 0.00 0.00 22 1004.8
20260505001737 82 149 1.7 6.1 0.00 0.00 0.00 23 1004.8
20260505001235 82 1 3.5 5.2 0.00 0.00 0.00 22 1004.7
20260505000731 82 4 3.5 5.2 0.00 0.00 0.00 22 1004.8
20260505000229 82 295 0.0 4.3 0.00 0.00 0.00 23 1004.8
20260504235725 82 333 4.3 8.7 0.00 0.00 0.00 22 1005.0
20260504235222 82 305 4.3 6.1 0.00 0.00 0.00 22 1004.9
20260504234719 82 52 0.9 7.8 0.00 0.00 0.00 24 1005.1
20260504234216 82 323 5.2 7.8 0.00 0.00 0.00 24 1005.1
20260504233712 82 294 3.5 6.1 0.00 0.00 0.00 23 1005.0
20260504233208 82 309 5.2 12.2 0.00 0.00 0.00 24 1005.2
20260504232706 82 282 4.3 11.3 0.00 0.00 0.00 25 1005.1
20260504232203 82 31 1.7 9.6 0.00 0.00 0.00 27 1005.1
20260504231659 81 305 2.6 5.2 0.00 0.00 0.00 27 1005.1
20260504231156 81 296 7.0 11.3 0.00 0.00 0.00 27 1005.4
20260504230652 81 304 8.7 13.0 0.00 0.00 0.00 27 1005.4
20260504230151 81 319 0.9 7.0 0.00 0.00 0.00 27 1005.5
20260504225649 82 90 3.5 9.6 0.00 0.00 0.00 29 1005.3
20260504225144 82 118 0.9 7.0 0.00 0.00 0.00 28 1005.7
20260504224642 81 307 0.9 6.1 0.00 0.00 0.00 28 1005.5
20260504224138 81 263 1.7 6.1 0.00 0.00 0.00 27 1005.7
20260504223636 81 323 0.9 7.0 0.00 0.00 0.00 30 1005.8
20260504223131 80 325 5.2 8.7 0.00 0.00 0.00 28 1005.8
20260504222628 80 295 5.2 8.7 0.00 0.00 0.00 28 1005.9
20260504222125 80 18 2.6 7.8 0.00 0.00 0.00 31 1006.0
20260504221623 80 252 3.5 7.8 0.00 0.00 0.00 28 1006.1
20260504221120 79 250 1.7 7.0 0.00 0.00 0.00 28 1006.1
20260504220616 80 250 4.3 6.1 0.00 0.00 0.00 28 1006.1
20260504220114 81 266 6.1 8.7 0.00 0.00 0.00 27 1006.2
20260504215609 80 273 6.1 7.0 0.00 0.00 0.00 28 1006.3
20260504215107 80 297 2.6 5.2 0.00 0.00 0.00 31 1006.6
20260504214603 80 308 1.7 5.2 0.00 0.00 0.00 31 1006.4
20260504214059 80 328 2.6 7.0 0.00 0.00 0.00 31 1006.6
20260504213556 79 293 4.3 5.2 0.00 0.00 0.00 29 1006.7
20260504213053 79 275 2.6 7.8 0.00 0.00 0.00 30 1006.6
20260504212549 78 356 2.6 5.2 0.00 0.00 0.00 32 1006.7
20260504212046 79 323 6.1 8.7 0.00 0.00 0.00 32 1007.1
20260504211543 79 346 0.0 6.1 0.00 0.00 0.00 33 1006.8
20260504211040 78 287 2.6 6.1 0.00 0.00 0.00 34 1007.2
20260504210537 78 300 6.1 8.7 0.00 0.00 0.00 31 1007.4
20260504210034 79 315 4.3 7.0 0.00 0.00 0.00 35 1007.2
20260504205532 78 26 0.0 1.7 0.00 0.00 0.00 36 1007.3
20260504205029 78 292 5.2 7.0 0.00 0.00 0.00 33 1007.5
20260504204527 77 283 0.9 4.3 0.00 0.00 0.00 34 1007.5
20260504204026 78 335 0.9 6.1 0.00 0.00 0.00 35 1007.6
20260504203524 78 312 2.6 5.2 0.00 0.00 0.00 37 1007.5
20260504203021 77 37 0.9 2.6 0.00 0.00 0.00 38 1007.6
20260504202516 76 199 0.9 7.8 0.00 0.00 0.00 37 1007.7
20260504202013 76 332 3.5 4.3 0.00 0.00 0.00 36 1008.0
20260504201510 75 279 6.1 8.7 0.00 0.00 0.00 32 1007.7
20260504201008 76 311 3.5 8.7 0.00 0.00 0.00 35 1007.7
20260504200504 76 350 1.7 4.3 0.00 0.00 0.00 38 1007.9
20260504200001 76 265 6.1 7.0 0.00 0.00 0.00 32 1008.0
20260504195457 76 226 0.9 2.6 0.00 0.00 0.00 35 1008.0
20260504194954 76 340 2.6 5.2 0.00 0.00 0.00 34 1008.0
20260504194450 75 350 2.6 5.2 0.00 0.00 0.00 34 1008.1
20260504193946 76 197 5.2 5.2 0.00 0.00 0.00 34 1008.1
20260504193443 76 25 0.9 5.2 0.00 0.00 0.00 34 1008.3
20260504192942 75 105 0.9 4.3 0.00 0.00 0.00 34 1008.5
20260504192439 75 272 4.3 6.1 0.00 0.00 0.00 34 1008.5
20260504191938 75 334 0.0 4.3 0.00 0.00 0.00 39 1008.5
20260504191435 73 271 6.1 8.7 0.00 0.00 0.00 35 1008.5
20260504190930 73 287 2.6 6.1 0.00 0.00 0.00 34 1008.6
20260504190426 73 312 0.9 2.6 0.00 0.00 0.00 39 1008.7
20260504185923 74 268 1.7 5.2 0.00 0.00 0.00 35 1008.7
20260504185420 73 285 1.7 5.2 0.00 0.00 0.00 38 1008.7